Location: Lugano
(46.0000°N, 8.9670°E)
Time: 17:14:26
(UTC+02:00)

Envisat - Pass Details

Date: 17 March 2026
Orbit: 761 x 762 km, 98.4° (Epoch: 19 April)

Event Time Altitude Azimuth Distance (km) Brightness Sun altitude
Rises 02:28:02 0° 21° (NNE) 3,235 7.1 -38.7°
Reaches altitude 10° 02:30:31 10° 29° (NNE) 2,304 6.2 -38.5°
Enters shadow 02:32:41 23° 45° (NE) 1,585 5.1 -38.2°
